Location: Wingville
(42.9917°N, 90.4915°W)
Time: 14:24:12
(UTC+00:00)

Cosmos 1743 Rocket - Pass Details

Date: 02 December 2022
Orbit: 603 x 632 km, 82.6° (Epoch: 01 February)

Event Time Altitude Azimuth Distance (km) Brightness Sun altitude
Rises 12:30:37 0° 140° (SE) 2,847 8.2 -8.0°
Reaches altitude 10° 12:33:47 10° 115° (ESE) 1,954 7.9 -7.5°
Maximum altitude 12:35:58 14° 84° (E) 1,724 6.9 -7.1°
Drops below altitude 10° 12:38:09 10° 54° (NE) 1,969 6.6 -6.8°
Sets 12:41:22 0° 28° (NNE) 2,886 7.1 -6.2°
